The Gibbers, Australia

9:45 AM AEST on August 24, 2017 (GMT +1000)
Port Stephens | | Change Station

Elev 150 ft 32.73 °S, 152.03 °E | Updated 3 seconds ago

Clear
Clear
60.7 °F
Feels Like 60.7 °F
N
4.0
Wind Variable Wind from West
Gusts 10.0 mph

Today
High -- | Low -- °F
--% Chance of Precip.
Yesterday
High -- | Low -- °F
Precip. -- in
Pressure 30.04 in
Visibility -9999.0 miles
Clouds
Dew Point 47 °F
Humidity 62%
Rainfall 0.00 in
Snow Depth Not available.
6:19 AM 5:29 PM
Waxing Crescent, 6% visible
METAR YWLM 232330Z 27007KT CAVOK 15/06 Q1017 FM0100 19012KT 9999 SCT035
Pressure 30.04 in
Visibility -9999.0 miles
Clouds
Dew Point 47 °F
Humidity 62%
Rainfall 0.00 in
Snow Depth Not available.
6:19 AM 5:29 PM
Waxing Crescent, 6% visible
METAR YWLM 232330Z 27007KT CAVOK 15/06 Q1017 FM0100 19012KT 9999 SCT035

Get Severe Weather Alerts

Thanks for signing up!

Be on the lookout for a verification email in your inbox.

You'll start receiving the daily forecast at 6 AM.

×

10-Day Weather Forecast

×

Almanac

Astronomy

Aug. 24, 2017 Rise Set
Actual Time
Civil Twilight
Nautical Twilight
Astronomical Twilight
Moon
Length of Visible Light
Length of Day
Tomorrow will be .
, % of the Moon is Illuminated

Today's Extremes

Country Highs Country Lows

Community

WunderPhotos

Category 6

Welcome to Category 6. This is the collective home for Weather Underground's featured writeups by Dr. Jeff Masters (right), Bob Henson (left), Chris Burt, and other regular contributors.

Nearby

Air Quality

  Air Quality AQ Index Pollutant
Not available.

Snow Depth

Station Depth Elevation

Earthquake Activity

City Distance Mag. Time & Date
Minimum magnitude displayed is 2.5.

Coastal Water Temperatures

Place Temperature

Stations

Nearby Weather Stations

Station Location Temp. Windchill Dew Point Humidity Wind Precip. Elev Updated Type